{"data":{"norad_id":63811,"intl_designator":"2025-092H","name":"STARLINK-34110","alt_names":[],"object_type":"PAYLOAD","status":"ACTIVE","operator":null,"country":"US","launch_date":"2025-05-04","launch_site_code":"AFETR","launch_vehicle":null,"mission":null,"orbit_class":"UNKNOWN","rcs_meters":null,"size_class":null,"mass_kg":null,"dimensions":null,"purposes":["comms"],"wikipedia_slug":null,"has_3d_model":false,"image_url":null,"decayed_at":null,"tle_current":{"epoch":"2026-06-01T18:07:39.960768Z","epoch_age_seconds":9718258,"freshness":"OLD","line1":"1 63811U 25092H   26152.75532362  .03887587  41480-1  44689-2 0  9993","line2":"2 63811  42.9807  15.3193 0022762 267.2833  92.5444 16.12838016 62005","mean_motion":16.12838016,"eccentricity":0.0022762,"inclination_deg":42.9807,"raan_deg":15.3193,"arg_perigee_deg":267.2833,"mean_anomaly_deg":92.5444,"bstar":0.0044689,"rev_number":6200,"period_min":89.283609743485,"perigee_km":224.00720057338,"apogee_km":254.13137046759,"semimajor_km":6617.2062855205,"source":"CELESTRAK","updated_at":"2026-06-03T09:01:01.219975Z"}}}